Location: Cabras
(39.9167°N, 8.5333°E)
Time: 16:51:19
(UTC+00:00)

Daily predictions for brighter satellites

Satellite Brightness Start Highest point End
(mag) Time Altitude Azimuth Time Altitude Azimuth Time Altitude Azimuth
STARLINK-1129 3.9 19:10:11 10° NW 19:14:17 61° NE 19:18:23 10° ESE
STARLINK-1199 3.6 19:13:07 10° SW 19:17:14 75° SE 19:21:22 10° NE
Tsikada Rocket 4.4 19:12:18 10° SSE 19:18:07 44° E 19:23:53 10° NNE
STARLINK-1134 3.8 19:15:08 10° NW 19:19:17 67° NE 19:23:22 10° ESE
MOS 1 Rocket 3.1 19:15:26 10° NNE 19:19:53 71° E 19:24:09 10° S
STARLINK-1210 3.6 19:18:06 10° SW 19:22:13 83° SE 19:26:23 10° NE
Cosmos 2242 Rocket 3.5 19:18:51 10° S 19:23:13 71° E 19:27:36 10° NNE
STARLINK-1135 3.7 19:20:07 10° NW 19:24:16 73° NE 19:28:23 10° SE
MetOp-A 4.2 19:19:01 10° SSE 19:24:18 67° ENE 19:29:38 10° N
STARLINK-1219 3.6 19:23:03 10° SW 19:27:11 89° NNW 19:31:21 10° NE
Cosmos 1743 3.0 19:23:57 10° N 19:27:38 46° E 19:31:18 10° SSE
NOSS 2-3 (D) 3.6 19:24:57 10° SSW 19:29:02 59° ESE 19:33:39 10° NE
STARLINK-1141 3.6 19:25:05 10° NW 19:29:14 80° NE 19:33:10 11° SE
Cosmos 2082 Rocket 4.3 19:26:37 10° NNE 19:29:17 13° NE 19:31:56 10° ENE
STARLINK-1157 3.6 19:26:41 10° WNW 19:29:54 51° SW 19:33:03 10° SSE
STARLINK-1211 3.7 19:28:02 10° SW 19:32:10 82° NW 19:36:20 10° NE
STARLINK-1140 3.6 19:30:04 10° NW 19:34:13 87° NE 19:37:57 13° SE
Cosmos 1833 Rocket 4.2 19:30:00 10° N 19:34:15 21° NE 19:38:28 10° ESE
Aureole 1 Rocket 4.1 19:31:23 10° N 19:35:23 35° ENE 19:40:00 12° SE
ARGOS 4.0 19:31:35 10° S 19:36:45 49° W 19:41:59 10° NNW
STARLINK-1245 3.9 19:33:01 10° SW 19:37:09 75° NW 19:41:18 10° NE
GPS 2-04 Rocket1 4.2 19:35:16 10° SSW 19:37:24 15° SSE 19:38:38 13° SE
CZ-2C R/B 2.7 19:32:01 10° NNE 19:37:40 82° ESE 19:43:17 10° S
STARLINK-1156 3.6 19:35:02 10° NW 19:39:11 85° SW 19:42:44 14° SE
Cosmos 407 Rocket 3.9 19:34:05 10° N 19:39:17 51° ENE 19:44:02 12° SE
USA 229 DEB 4.2 19:33:16 10° SW 19:39:42 65° NW 19:46:29 10° NNE
USA 229 4.1 19:33:23 10° SW 19:39:48 65° NW 19:46:35 10° NNE
STARLINK-1233 4.0 19:38:00 10° WSW 19:42:07 68° NW 19:46:16 10° NE
STARLINK-1148 3.6 19:40:01 10° NW 19:44:09 78° SW 19:47:30 15° SE
Okean 1-7 2.9 19:41:11 10° S 19:45:27 73° E 19:49:43 10° NNE
NOSS 3-1 (C) 4.3 19:41:35 10° SW 19:46:49 50° NW 19:52:53 10° NNE
STARLINK-1204 4.2 19:43:01 10° WSW 19:47:07 62° NW 19:51:14 10° NE
CZ-2C R/B 4.0 19:42:41 10° N 19:47:08 70° WNW 19:51:38 10° SSW
STARLINK-1203 4.4 19:44:26 10° S 19:48:04 29° SE 19:51:42 10° ENE
NOSS 3-1 (A) 3.4 19:43:32 10° SW 19:48:53 78° NW 19:55:06 10° NNE
STARLINK-1158 3.7 19:45:01 10° NW 19:49:08 70° SW 19:52:18 16° SE
STARLINK-1241 4.4 19:46:01 10° S 19:49:36 29° SE 19:53:12 10° ENE
STARLINK-1238 4.3 19:48:03 10° WSW 19:52:07 57° NW 19:56:13 10° NE
STARLINK-1162 3.8 19:50:01 10° NW 19:54:07 63° SW 19:57:05 18° SE
STARLINK-1239 4.3 19:50:52 10° SSW 19:54:33 32° SE 19:58:15 10° ENE
SPOT 3 Rocket 3.8 19:50:49 10° S 19:55:56 71° WSW 20:01:06 10° NNW
ATLAS 3B CENTAUR R/B 4.1 19:46:29 10° SW 19:56:42 24° S 20:00:55 16° SE
ERBS 2.2 19:55:33 10° SSW 19:58:47 57° SE 20:02:02 10° NE
BREEZE-M DEB (TANK) 2.5 19:56:32 10° WNW 19:58:49 56° SW 20:00:03 24° SE
STARLINK-1240 4.1 19:55:44 10° SSW 19:59:30 35° SE 20:03:18 10° ENE
NOSS 2-3 (C) 4.0 19:55:34 10° SW 19:59:45 66° NW 20:04:33 10° NNE
Cosmos 2278 Rocket 2.3 19:55:01 10° S 20:00:30 55° ESE 20:06:03 10° NNE
Cosmos 1975 2.8 19:58:48 10° N 20:02:50 65° E 20:05:40 18° SSE
Cosmos 2221 Rocket 4.2 19:59:57 17° SSE 20:02:59 38° E 20:07:10 10° NNE
Cosmos 1190 Rocket 4.0 19:58:04 10° NNW 20:03:17 70° ENE 20:07:08 18° SSE
Cosmos 1624 Rocket 4.1 19:58:16 10° SSW 20:03:36 87° WNW 20:08:58 10° NNE
STARLINK-1159 4.1 20:00:00 10° WNW 20:04:01 51° SW 20:06:38 20° SSE
USA 245 4.0 20:02:38 21° ESE 20:04:11 29° ENE 20:06:54 10° NNE
STARLINK-1216 4.0 20:00:35 10° SSW 20:04:26 39° SE 20:08:19 10° ENE
Cosmos 614 Rocket 4.1 20:01:05 10° NNW 20:06:09 71° WSW 20:10:32 14° S
Okean 1 4.3 20:03:18 10° SSW 20:07:13 49° W 20:11:10 10° N
H-2A R/B 4.4 20:04:06 10° SW 20:07:36 19° W 20:11:11 10° NW
Cosmos 1140 Rocket 3.5 20:02:33 10° NNW 20:07:45 69° ENE 20:11:22 20° SSE
STARLINK-1171 4.2 20:05:02 10° WNW 20:09:01 46° SW 20:11:27 21° SSE
STARLINK-1237 3.9 20:05:29 10° SSW 20:09:24 43° SE 20:13:20 10° ENE
EXPRESS MD2 3.8 20:08:08 20° S 20:09:31 29° SE 20:13:35 10° ENE
Meteor 1-19 Rocket 4.3 20:05:39 10° S 20:11:13 83° W 20:17:00 10° N
STARLINK-1080 4.5 20:07:21 10° NW 20:11:18 42° NNE 20:13:59 18° E
Resurs 01 Rocket 1.8 20:08:35 13° S 20:12:27 73° WSW 20:16:56 10° NNW
STARLINK-1155 4.4 20:10:02 10° WNW 20:13:57 42° SW 20:16:13 22° SSE
Meteor 1-4 Rocket 2.4 20:10:59 11° S 20:14:18 82° W 20:17:46 10° N
STARLINK-1202 3.8 20:10:24 10° SSW 20:14:22 48° SE 20:18:22 10° ENE
NOSS 3 (A) 4.3 20:12:48 10° SW 20:15:27 83° WNW 20:18:14 10° NNE
STARLINK-1090 4.3 20:12:15 10° NW 20:16:16 46° NNE 20:18:44 21° E
Cosmos 1515 4.1 20:12:30 10° SSW 20:16:18 64° W 20:20:05 10° N
Cosmos 1782 Rocket 3.8 20:13:28 10° NNW 20:17:57 72° W 20:21:30 16° S
Cosmos 1437 Rocket 4.0 20:17:49 22° E 20:18:07 22° E 20:21:05 10° NE
Sich 1 Rocket 3.6 20:13:53 10° N 20:18:29 74° E 20:21:21 23° SSE
STARLINK-1089 4.2 20:17:13 10° NW 20:21:15 49° NE 20:23:30 23° E
ERS-1 Rocket 3.9 20:20:14 22° ESE 20:22:38 34° ENE 20:27:08 10° N
STARLINK-1246 3.6 20:20:13 10° SW 20:24:17 59° SE 20:28:22 10° ENE
ISS -1.2 20:23:55 10° NNW 20:26:12 17° NNE 20:28:29 10° ENE
STARLINK-1107 4.1 20:22:11 10° NW 20:26:15 54° NE 20:28:17 27° ESE
Terra 3.3 20:26:03 18° E 20:27:48 23° ENE 20:31:29 10° NNE
Cosmos 2279 Rocket 4.2 20:23:05 10° N 20:29:12 55° E 20:32:42 26° SSE
STARLINK-1224 3.5 20:25:10 10° SW 20:29:15 66° SE 20:33:22 10° NE
Cosmos 1954 Rocket 4.0 20:24:13 10° NNW 20:29:29 69° ENE 20:32:15 28° SSE
STARLINK-1066 3.9 20:27:10 10° NW 20:31:16 59° NE 20:33:06 30° ESE
Okean 2 Rocket 3.1 20:27:57 10° N 20:32:21 62° E 20:34:09 33° SSE
Spot 2 Rocket 3.4 20:30:33 25° SSE 20:33:31 85° ENE 20:38:35 10° NNW
STARLINK-1225 3.5 20:30:06 10° SW 20:34:13 73° SE 20:38:21 10° NE
STARLINK-1081 3.8 20:32:07 10° NW 20:36:15 64° NE 20:37:52 34° ESE
Lacrosse 5 3.1 20:33:28 10° NNW 20:38:05 34° NE 20:41:05 19° E
STARLINK-1230 3.5 20:35:04 10° SW 20:39:11 80° SE 20:43:20 10° NE
MetOp-B 4.3 20:35:47 21° S 20:39:23 70° WSW 20:44:44 10° NNW
Meteor 1-12 Rocket 4.2 20:35:04 10° N 20:40:44 73° E 20:43:39 30° SSE
COSMOS 2406 3.3 20:35:04 10° NNW 20:40:50 75° WSW 20:44:02 27° S
Meteor 2-4 Rocket 3.8 20:35:28 10° SSW 20:40:51 73° W 20:46:13 10° N
STARLINK-1070 3.7 20:37:05 10° NW 20:41:13 71° NE 20:42:38 39° ESE
Cosmos 371 Rocket 3.2 20:38:42 21° S 20:41:56 72° ESE 20:46:47 10° NNE
CREW DRAGON DEMO-1 DEB 3.8 20:39:07 10° WNW 20:41:58 34° SW 20:42:05 34° SW
Cosmos 1544 4.3 20:38:37 10° NNW 20:42:00 38° W 20:44:02 20° SSW
Cosmos 676 Rocket 4.0 20:38:25 10° NNW 20:43:41 86° WSW 20:46:15 31° SSE
STARLINK-1243 3.5 20:40:02 10° SW 20:44:09 88° SE 20:48:19 10° NE
SAR-Lupe-2 4.0 20:40:39 10° N 20:44:13 62° WNW 20:46:22 22° SSW
Okean 1 Rocket 4.3 20:40:59 10° NNE 20:44:44 26° ENE 20:45:25 25° E
Cosmos 2151 Rocket 3.7 20:41:22 10° N 20:45:52 60° E 20:47:15 40° SE
STARLINK-1069 3.6 20:42:02 10° NW 20:46:11 77° NE 20:47:25 44° ESE
Cosmos 1634 Rocket 4.3 20:40:11 10° NNW 20:46:26 66° W 20:51:10 18° S
Hubble Space Telescope 3.0 20:44:39 10° SW 20:45:26 12° SSW 20:45:26 12° SSW
Meteor 1-13 Rocket 4.1 20:44:09 22° S 20:47:55 83° E 20:53:37 10° N
SL-4 R/B 2.5 20:45:22 10° N 20:48:05 30° NE 20:48:05 30° NE
STARLINK-1236 3.6 20:45:01 10° SW 20:49:09 85° NW 20:53:19 10° NE
STARLINK-1085 3.5 20:47:02 10° NW 20:51:12 85° NE 20:52:13 50° ESE
STARLINK-1086 3.5 20:52:00 10° NW 20:56:09 88° SW 20:56:59 56° SE
Crew Dragon 3.2 20:56:49 10° N 20:57:34 12° NNE 20:57:34 12° NNE
Cosmos 2297 4.0 20:57:27 38° SSE 20:58:56 46° ESE 21:04:21 10° NE
STARLINK-1269 3.8 20:54:57 10° WSW 20:59:05 71° NW 21:03:14 10° NE
IGS 5A 3.9 20:57:51 35° SSW 20:59:20 57° W 21:03:26 10° NNW
STARLINK-1095 3.5 20:56:59 10° NW 21:01:09 80° SW 21:01:47 62° SSE
CARTOSAT-1 3.5 21:01:34 53° SSE 21:02:32 77° ENE 21:06:51 10° N
STARLINK-1200 4.0 21:00:00 10° WSW 21:04:06 64° NW 21:08:13 10° NE
H-2A R/B 4.4 21:01:24 10° SSW 21:01:49 11° SSW 21:01:49 11° SSW
STARLINK-1077 3.5 21:01:59 10° NW 21:06:07 73° SW 21:06:34 65° S
BREEZE M DEB (TANK) 3.7 21:00:32 10° WSW 21:06:46 49° NW 21:09:17 10° NE
STARLINK-1192 4.1 21:05:01 10° WSW 21:09:05 59° NW 21:13:12 10° NE
Cosmos 2180 Rocket 4.5 21:03:43 10° N 21:10:09 89° WSW 21:12:57 36° S
STARLINK-1075 3.6 21:06:58 10° NW 21:11:05 66° SW 21:11:20 64° SSW
SPOT 5 2.9 21:10:00 46° SSE 21:11:34 85° ENE 21:16:53 10° NNW
STARLINK-1244 4.3 21:10:01 10° WSW 21:14:04 54° NW 21:18:09 10° NE
Cosmos 2082 Rocket 2.1 21:08:34 10° NNW 21:14:19 80° ENE 21:16:03 47° SE
Cosmos 1461 2.8 21:15:49 65° E 21:15:49 65° E 21:19:49 10° NE
STARLINK-1093 3.7 21:11:59 10° WNW 21:16:03 59° SW 21:16:08 59° SW
Cosmos 1452 Rocket 4.1 21:12:48 13° SW 21:17:24 55° WNW 21:22:37 10° N
Cosmos 1833 Rocket 3.0 21:13:03 10° NNW 21:18:33 57° WSW 21:20:27 38° SSW
STARLINK-1138 4.5 21:15:02 10° WSW 21:19:03 49° NW 21:23:05 10° NE
Cosmos 1378 4.1 21:20:31 37° NE 21:20:31 37° NE 21:23:11 10° NNE
STARLINK-1074 3.9 21:16:58 10° WNW 21:20:54 53° SW 21:20:54 53° SW
Aureole 2 Rocket 3.8 21:24:15 29° NNE 21:24:15 29° NNE 21:25:54 10° NNE
Thor Agena Rocket 4.4 21:20:05 10° NNE 21:24:39 33° E 21:24:39 33° E
Cosmos 2369 Rocket 3.6 21:26:15 22° E 21:26:15 22° E 21:29:37 10° NE
Cosmos 304 Rocket 3.6 21:24:47 56° SSW 21:25:48 89° SE 21:30:37 10° NNE
Cosmos 1943 Rocket 2.9 21:28:54 34° E 21:28:54 34° E 21:33:22 10° NE
STARLINK-1088 4.4 21:26:59 10° WNW 21:30:28 41° WSW 21:30:28 41° WSW
Cosmos 1805 4.0 21:28:22 10° N 21:31:34 42° NE 21:31:34 42° NE
Cosmos 1066 Rocket 4.1 21:31:09 43° SSW 21:32:58 77° W 21:38:21 10° N
STARLINK-1122 4.4 21:29:15 10° NW 21:33:14 44° NNE 21:33:42 42° NE
STARLINK-1126 4.2 21:34:14 10° NW 21:38:16 48° NE 21:38:32 47° NE
STARLINK-1082 4.1 21:39:09 10° NW 21:43:13 52° NE 21:43:15 52° NE
NOSS 2-2 (E) 4.0 21:45:11 46° NNE 21:45:11 46° NNE 21:48:03 10° NNE
Cosmos 1378 Rocket 4.3 21:43:25 42° WSW 21:44:16 48° W 21:48:33 10° N
Meteor 1-15 Rocket 4.5 21:38:46 10° NNW 21:44:39 68° W 21:46:14 48° SSW
Cosmos 2278 Rocket 4.5 21:40:33 10° WSW 21:44:56 23° NW 21:49:21 10° N
STARLINK-1100 4.1 21:44:07 10° NW 21:48:03 56° NNE 21:48:03 56° NNE
Cosmos 2026 Rocket 4.0 21:48:11 53° SE 21:49:11 60° E 21:55:24 10° NNE
STARLINK-1083 4.1 21:49:04 10° NW 21:52:48 59° N 21:52:48 59° N
Cosmos 1741 Rocket 4.3 21:48:56 10° NNW 21:54:00 54° WSW 21:54:36 51° SW
Okean 2 3.8 21:56:17 57° NNE 21:56:17 57° NNE 21:59:39 10° N
Cosmos 1975 Rocket 3.3 21:57:35 64° NE 21:57:35 64° NE 22:01:28 10° N
STARLINK-1125 4.1 21:54:03 10° NW 21:57:36 58° NNW 21:57:36 58° NNW
SeaSat 1 2.3 21:56:05 10° NNE 22:01:02 84° WNW 22:01:28 74° SW
ERS-1 Rocket 4.4 22:00:14 24° WSW 22:01:25 27° W 22:05:39 10° NW
STARLINK-1109 4.2 21:59:00 10° NW 22:02:23 55° NNW 22:02:23 55° NNW
ISS -1.7 22:00:05 10° NW 22:01:47 27° NW 22:01:47 27° NW
Terra 2.7 22:04:56 37° WSW 22:05:18 37° W 22:09:44 10° NNW
NOSS 2-2 (C) 4.4 22:08:28 40° N 22:08:28 40° N 22:11:17 10° NNE
ATLAS 2AS CENTAUR R/B 3.6 22:08:00 37° ESE 22:08:05 37° ESE 22:15:13 10° NE
STARLINK-1091 4.3 22:03:58 10° NW 22:07:09 51° NW 22:07:09 51° NW
Spot 4 4.0 22:17:50 67° NE 22:17:50 67° NE 22:22:26 10° N
NOSS 3-2 (A) 4.4 22:10:25 10° NNW 22:17:55 58° NE 22:21:24 36° ESE
Cosmos 1766 4.5 22:16:41 10° NNW 22:19:37 39° NW 22:19:37 39° NW
Lacrosse 5 2.7 22:16:21 10° NW 22:20:15 40° W 22:20:15 40° W
USA 238 DEB 4.1 22:19:17 10° NNW 22:26:28 62° NE 22:28:52 43° ESE
USA 238 4.1 22:19:23 10° NNW 22:26:34 61° NE 22:28:59 42° ESE
Cosmos 1025 Rocket 4.1 22:34:49 39° NE 22:34:49 39° NE 22:37:42 10° NNE
Cosmos 1455 Rocket 3.7 22:29:13 10° NNW 22:32:37 52° NNW 22:32:37 52° NNW
COSMOS 2455 4.2 22:35:47 26° E 22:35:47 26° E 22:39:30 10° NE
Nimbus 7 Rocket 4.3 22:29:12 10° NNE 22:35:17 73° ESE 22:35:34 72° SE
Cosmos 1953 4.2 22:32:00 10° NNE 22:34:15 24° NE 22:34:15 24° NE
Cosmos 1486 Rocket 4.3 22:30:24 10° N 22:35:35 57° ENE 22:35:35 57° ENE
Cosmos 1302 Rocket 4.3 22:37:48 56° W 22:38:13 58° WNW 22:43:28 10° NNE
Cosmos 1417 Rocket 4.3 22:44:28 10° N 22:50:49 90° SE 22:51:19 77° S
Aureole 3 Rocket 4.2 22:47:48 10° NNW 22:53:42 73° W 22:54:53 61° SSW
Cosmos 1536 Rocket 4.4 22:57:54 47° N 22:57:54 47° N 23:01:02 10° N
SL-4 R/B 4.0 22:59:59 27° ENE 22:59:59 27° ENE 23:02:14 10° ENE
Cosmos 2082 Rocket 4.4 22:55:06 10° WNW 22:57:36 13° W 22:57:54 13° W
ATLAS 5 CENTAUR R/B 4.2 23:00:58 15° NNE 23:00:58 15° NNE 23:01:25 10° NNE
ALOS 2 3.4 23:01:01 50° NNW 23:01:01 50° NNW 23:04:19 10° NNW
APEX 4.4 23:01:32 70° SW 23:02:16 80° WNW 23:08:08 10° NNE
Cosmos 1470 4.5 22:58:44 10° NNW 23:00:55 30° NNW 23:00:55 30° NNW
Meteor 2-8 Rocket 4.3 22:57:23 10° N 23:03:33 89° E 23:03:50 83° SSE
USA 215 3.1 23:03:19 63° SE 23:04:33 88° NE 23:11:09 10° NW
Cosmos 1992 Rocket 4.1 23:08:31 71° N 23:08:31 71° N 23:13:15 10° NNE
Cosmos 2369 Rocket 2.9 23:07:59 43° W 23:08:54 47° WNW 23:14:22 10° NNE
Cosmos 1943 Rocket 3.5 23:10:23 27° W 23:12:06 32° WNW 23:17:04 10° N
SL-8 R/B 4.4 23:11:13 10° NW 23:15:04 52° NNW 23:15:04 52° NNW
S3M 3.9 23:12:49 10° NNW 23:18:56 68° W 23:19:11 68° WSW
Cosmos 1655 Rocket 4.2 23:20:27 57° WSW 23:21:01 59° W 23:27:11 10° N
ATLAS CENTAUR R/B 3.0 23:25:24 31° NE 23:25:24 31° NE 23:27:40 10° NE
NOSS 3-2 (C) 4.0 23:16:32 10° NW 23:24:18 88° NE 23:26:35 54° SE
Cosmos 1726 4.1 23:23:54 10° NNW 23:25:42 27° NNW 23:25:42 27° NNW
NOSS 3-4 (A) 3.3 23:29:50 71° W 23:30:17 75° NW 23:36:33 10° NNE
NOSS 3-4 (C) 3.3 23:29:57 72° W 23:30:23 76° NW 23:36:40 10° NNE
ATLAS 3B R/B 3.5 23:28:24 10° NNW 23:34:56 46° NE 23:38:47 25° ESE
CENTAUR R/B 3.1 23:28:51 10° NW 23:37:08 89° WSW 23:39:47 51° SSE
RESURS DK-1 4.3 23:39:42 23° ENE 23:39:42 23° ENE 23:41:37 10° NE
Meteor 2-5 Rocket 3.8 23:41:51 62° E 23:41:51 62° E 23:47:08 10° NNE
Cosmos 1626 4.2 23:50:51 25° NE 23:50:51 25° NE 23:52:43 10° NNE
Cosmos 1656 Rocket 4.5 23:51:32 40° W 23:52:15 42° WNW 23:57:33 10° N
